Lakehurst NAS, NJ

10:40 PM EDT on April 24, 2017 (GMT -0400)
Lakehurst Naes

Weather History for KNEL - March, 2014

Change the Weather History Date:

Monday, March 31, 2014

  Actual Average Record
Temperature  
Mean Temperature 44 °F -  
Max Temperature 41 °F 55 °F 86 °F (1998)
Min Temperature 35 °F 38 °F 31 °F (1997)
Degree Days  
Heating Degree Days 20    
Moisture  
Dew Point 35 °F    
Average Humidity 82    
Maximum Humidity 100    
Minimum Humidity 41    
Precipitation  
Precipitation 0.00 in - - ()
Sea Level Pressure  
Sea Level Pressure 29.85 in    
Wind  
Wind Speed 7 mph (NW)    
Max Wind Speed 15 mph    
Max Gust Speed 23 mph    
Averages and records for this station are not official NWS values.
T = Trace of Precipitation, MM = Missing Value Source: NWS Daily Summary

Daily Weather History Graph

Daily Weather History Graph

Search for Another Location

Airport or City:

Trip Planner

Search our weather history database for the weather conditions in past years. The results will help you decide how hot, cold, wet, or windy it might be!

Date:

Astronomy

Mar. 31, 2014 Rise Set
Actual Time 6:43 AM EDT 7:20 PM EDT
Civil Twilight 6:15 AM EDT 7:48 PM EDT
Nautical Twilight 5:43 AM EDT 8:20 PM EDT
Astronomical Twilight 5:10 AM EDT 8:53 PM EDT
Moon 7:04 AM EDT (3/31) 8:36 PM EDT (3/31)
Length of Visible Light 13h 32m
Length of Day
12h 37m
New Moon, 1% of the Moon is Illuminated
Mar 31
New Moon
Apr 7
First Quarter
Apr 15
Full
Apr 22
Last Quarter
Apr 29
New

Hourly Weather History & Observations

Time (EDT) Temp. Windchill Dew Point Humidity Pressure Visibility Wind Dir Wind Speed Gust Speed Precip Events Conditions
12:00 AM 42.1 °F 37.1 °F 42.1 °F 100% 29.65 in - NNW 8.1 mph 18.4 mph 0.00 in   Overcast
1:00 AM 39.2 °F 35.9 °F 39.2 °F 100% 29.68 in - Variable 4.6 mph - 0.00 in Rain Light Rain
1:06 AM 39.9 °F 35.8 °F 39.9 °F 100% 29.69 in - NW 5.8 mph - 0.00 in Rain Light Rain
2:00 AM 39.0 °F 34.8 °F 39.0 °F 100% 29.71 in - NW 5.8 mph - 0.00 in Rain Light Rain
3:00 AM 37.9 °F 32.1 °F 37.9 °F 100% 29.73 in - NNW 8.1 mph - 0.00 in Rain Light Rain
4:00 AM 37.0 °F 31.0 °F 37.0 °F 100% 29.74 in - NNW 8.1 mph - 0.00 in   Overcast
5:00 AM 37.0 °F 31.0 °F 37.0 °F 100% 29.76 in - NW 8.1 mph - 0.00 in Rain Light Rain
5:08 AM 37.4 °F 32.8 °F 37.4 °F 100% 29.76 in - NW 5.8 mph - 0.00 in   Overcast
6:00 AM 37.0 °F 31.6 °F 37.0 °F 100% 29.78 in - NW 6.9 mph - 0.00 in   Overcast
6:24 AM 37.4 °F 31.4 °F 37.4 °F 100% 29.79 in - NW 8.1 mph - N/A   Overcast
7:00 AM 37.0 °F 30.4 °F 37.0 °F 100% 29.81 in - NW 9.2 mph - N/A   Overcast
7:48 AM 35.6 °F 30.7 °F 35.6 °F 100% 29.84 in - Variable 5.8 mph 17.3 mph 0.00 in   Overcast
8:00 AM 35.6 °F 29.2 °F 35.6 °F 100% 29.85 in - NW 8.1 mph 18.4 mph 0.00 in Rain Light Rain
8:06 AM 36.0 °F 29.0 °F 36.0 °F 100% 29.86 in - NW 9.2 mph 18.4 mph 0.00 in   Overcast
8:38 AM 35.6 °F 32.8 °F 35.6 °F 100% 29.87 in - Variable 3.5 mph - 0.00 in Snow Light Snow
8:48 AM 35.6 °F 31.7 °F 35.6 °F 100% 29.87 in - NW 4.6 mph - 0.00 in Snow Light Snow
8:55 AM 35.6 °F 30.7 °F 35.6 °F 100% 29.87 in - NW 5.8 mph - 0.00 in   Overcast
9:00 AM 36.0 °F 30.3 °F 36.0 °F 100% 29.87 in - NNW 6.9 mph - 0.00 in   Overcast
9:25 AM 37.4 °F 32.1 °F 37.4 °F 100% 29.88 in - NW 6.9 mph - 0.00 in   Overcast
10:00 AM 39.0 °F 34.0 °F 37.9 °F 96% 29.89 in - Variable 6.9 mph - 0.00 in   Overcast
11:00 AM 39.9 °F 33.9 °F 33.1 °F 77% 29.91 in - NNW 9.2 mph 17.3 mph N/A   Overcast
12:00 PM 42.1 °F 34.5 °F 32.0 °F 67% 29.92 in - NNW 15.0 mph 23.0 mph N/A   Overcast
1:00 PM 46.9 °F - 32.0 °F 56% 29.91 in - Variable 4.6 mph 16.1 mph N/A   Overcast
2:00 PM 50.0 °F - 33.1 °F 52% 29.90 in - NNW 11.5 mph 20.7 mph N/A   Mostly Cloudy
3:00 PM 53.1 °F - 34.0 °F 48% 29.90 in - NW 13.8 mph 20.7 mph N/A   Clear
4:00 PM 54.0 °F - 34.0 °F 47% 29.90 in - WNW 11.5 mph 20.7 mph N/A   Clear
5:00 PM 54.0 °F - 33.1 °F 45% 29.91 in - NW 15.0 mph 21.9 mph N/A   Clear
6:00 PM 54.0 °F - 30.9 °F 41% 29.94 in - NNW 10.4 mph 20.7 mph N/A   Clear
7:00 PM 52.0 °F - 30.9 °F 45% 29.96 in - Variable 6.9 mph - N/A   Clear
8:00 PM 48.9 °F - 32.0 °F 52% 29.98 in - NW 4.6 mph - N/A   Clear
10:00 PM 46.9 °F - 30.9 °F 54% 30.01 in - NNW 5.8 mph - N/A   Clear
11:00 PM 46.0 °F 43.1 °F 30.9 °F 56% 30.04 in - NW 5.8 mph - N/A   Clear